Location: Ballingbuur
(53.0000°N, 5.7667°E)
Time: 21:03:34
(UTC+00:00)

USA-17 - Pass Details

Date: 29 November 2020
Orbit: 389 x 1776 km, 63.3° (Epoch: 25 January)

Event Time Altitude Azimuth Distance (km) Brightness Sun altitude
Rises 05:49:39 0° 222° (SW) 2,638 8.1 -13.5°
Reaches altitude 10° 05:52:00 10° 221° (SW) 1,621 7.0 -13.2°
Maximum altitude 05:55:26 77° 136° (SE) 429 4.3 -12.7°
Drops below altitude 10° 05:58:29 10° 49° (NE) 1,436 7.4 -12.3°
Sets 06:00:26 0° 48° (NE) 2,298 8.4 -12.0°
